Location: Baia de Cri?
(46.1667°N, 22.7167°E)
Time: 20:31:20
(UTC+00:00)

Okean 3 - Pass Details

Date: 15 January 2026
Orbit: 541 x 564 km, 82.5° (Epoch: 10 February)

Event Time Altitude Azimuth Distance (km) Brightness Sun altitude
Exits shadow 03:57:55 20° 1° (N) 1,316 5.1 -21.9°
Maximum altitude 04:00:37 63° 79° (E) 610 3.7 -21.5°
Drops below altitude 10° 04:04:32 10° 161° (SSE) 1,801 6.3 -20.8°
Sets 04:06:42 0° 165° (SSE) 2,687 7.2 -20.4°
